Weather History for Dillon, MT

Change the Weather History Date:

Saturday, June 7, 2014

  Actual Average Record
Temperature  
Mean Temperature 55 °F 56 °F  
Max Temperature 72 °F 69 °F 89 °F (2000)
Min Temperature 38 °F 42 °F 29 °F (1946)
Degree Days  
Heating Degree Days 10    
Month to date heating degree days 53  
Since 1 June heating degree days 53  
Since 1 July heating degree days 7815  
Cooling Degree Days 0    
Month to date cooling degree days 0  
Year to date cooling degree days 0  
Since 1 June cooling degree days 0  
Growing Degree Days 4 (Base 50)    
Moisture  
Dew Point 33 °F    
Average Humidity 54    
Maximum Humidity 85    
Minimum Humidity 22    
Precipitation  
Precipitation T in 0.08 in 1.50 in (1964)
Month to date precipitation 0.18 0.58  
Year to date precipitation 3.42 4.65  
Snow  
Snow 0.00 in - - ()
Snow Depth 0.00 in    
Sea Level Pressure  
Sea Level Pressure 29.99 in    
Wind  
Wind Speed 7 mph (NNE)    
Max Wind Speed 23 mph    
Max Gust Speed 29 mph    
Visibility 10 miles    
Events      
T = Trace of Precipitation, MM = Missing Value Source: NWS Daily Summary

Daily Weather History Graph

Daily Weather History Graph

Search for Another Location

Airport:

Trip Planner

Search our weather history database for the weather conditions in past years. The results will help you decide how hot, cold, wet, or windy it might be!

Date:

Astronomy

Jun. 07, 2014 Rise Set
Actual Time 5:43 AM MDT 9:15 PM MDT
Civil Twilight 5:06 AM MDT 9:52 PM MDT
Nautical Twilight 4:16 AM MDT 10:41 PM MDT
Astronomical Twilight 3:12 AM MDT 11:46 PM MDT
Moon 3:22 PM MDT (6/7) 2:22 AM MDT (6/7)
Length of Visible Light 16h 46m
Length of Day
15h 32m
Waxing Gibbous, 68% of the Moon is Illuminated
Jun 7
Waxing Gibbous
Jun 12
Full
Jun 19
Last Quarter
Jun 27
New
Jul 5
First Quarter

Hourly Weather History & Observations

Time (MDT) Temp. Windchill Dew Point Humidity Pressure Visibility Wind Dir Wind Speed Gust Speed Precip Events Conditions
12:53 AM 46.0 °F 42.5 °F 30.9 °F 56% 29.98 in 10.0 mi ENE 6.9 mph - N/A   Clear
1:53 AM 44.1 °F 39.5 °F 35.1 °F 71% 29.99 in 10.0 mi East 8.1 mph - N/A   Clear
2:53 AM 43.0 °F 38.8 °F 36.0 °F 76% 30.00 in 10.0 mi ENE 6.9 mph - N/A   Clear
3:53 AM 43.0 °F - 36.0 °F 76% 30.00 in 10.0 mi Calm Calm - N/A   Clear
4:53 AM 39.9 °F 35.8 °F 35.1 °F 83% 30.01 in 10.0 mi ESE 5.8 mph - N/A   Clear
5:53 AM 41.0 °F - 35.1 °F 79% 30.02 in 10.0 mi Calm Calm - N/A   Clear
6:53 AM 39.0 °F 33.4 °F 34.0 °F 82% 30.03 in 10.0 mi SW 8.1 mph - N/A   Clear
7:53 AM 44.1 °F 41.5 °F 36.0 °F 73% 30.04 in 10.0 mi SW 4.6 mph - N/A   Clear
9:53 AM 54.0 °F - 37.9 °F 55% 30.02 in 10.0 mi Calm Calm - N/A   Clear
10:53 AM 57.9 °F - 36.0 °F 44% 30.01 in 10.0 mi ENE 3.5 mph - N/A   Clear
11:53 AM 62.1 °F - 35.1 °F 37% 29.99 in 10.0 mi North 3.5 mph - N/A   Clear
12:53 PM 64.0 °F - 27.0 °F 25% 29.98 in 10.0 mi SSW 3.5 mph - N/A   Clear
1:53 PM 66.9 °F - 30.9 °F 26% 29.95 in 10.0 mi NNW 6.9 mph - N/A   Clear
2:53 PM 68.0 °F - 28.0 °F 22% 29.94 in 10.0 mi North 4.6 mph - N/A   Clear
3:53 PM 66.9 °F - 28.0 °F 23% 29.93 in 10.0 mi NNE 8.1 mph - N/A   Clear
4:53 PM 69.1 °F - 28.9 °F 22% 29.93 in 10.0 mi NNE 12.7 mph - N/A   Scattered Clouds
5:53 PM 66.9 °F - 36.0 °F 32% 29.93 in 10.0 mi NE 15.0 mph - N/A   Scattered Clouds
6:53 PM 62.1 °F - 35.1 °F 37% 29.96 in 10.0 mi NNW 17.3 mph 27.6 mph N/A   Scattered Clouds
7:53 PM 61.0 °F - 30.9 °F 32% 29.98 in 10.0 mi North 16.1 mph - N/A   Partly Cloudy
8:53 PM 57.9 °F - 33.1 °F 39% 29.99 in 10.0 mi NNE 9.2 mph - N/A   Overcast
9:53 PM 59.0 °F - 30.9 °F 35% 30.00 in 10.0 mi North 13.8 mph - N/A   Overcast
10:10 PM 55.9 °F - 35.1 °F 45% 30.11 in 10.0 mi West 13.8 mph 21.9 mph N/A   Overcast
10:53 PM 55.0 °F - 36.0 °F 49% 30.00 in 10.0 mi South 5.8 mph - 0.00 in   Overcast
11:53 PM 51.1 °F - 36.0 °F 56% 29.99 in 10.0 mi SE 5.8 mph - N/A   Clear